User: anonymous   Login
Location: *
(51.5000°N, 0.1100°W)
Time: 04:45:24
(UTC+00:00)
Language:

Cosmos 405 Rocket - Orbit

View from above orbital plane
View from above orbital plane
View from above satellite
View from above satellite

Ground track
Ground track

The orbit data is extracted from the following two-line orbital elements,

1  5118U 71028B   24204.78577261  .00016766  00000-0  57518-3 0  9993
2  5118  81.2477  47.3744 0033914 204.6903 155.2712 15.29477273897171
Epoch (UTC): 22 July 2024 18:51:30
Eccentricity: 0.0033914
inclination: 81.2477°
perigee height: 454 km
apogee height: 500 km
right ascension of ascending node: 47.3744°
argument of perigee: 204.6903°
revolutions per day: 15.29477273
mean anomaly at epoch: 155.2712°
orbit number at epoch: 89717

The dashed part of the orbit path shows where the satellite is in the earth's shadow,  

DLR